Date String (YYYY-MM-DD hh:mm:ss) UTC,Instrument flags,Ambient pressure (hPa),Sample flow (lpm),Bypass flow (lpm),Sample temperature (°C),Ambient temperature (°C),ASC tube jacket temperature (°C),LED temperature (°C),Box temperature (°C),Sample RH (%),Span deviation,Mass concentration (μg/m³),Mass concentration (μg/m³),Mass concentration (μg/m³)
DateTimeUTC,F1_M11,P_M11,Q1_M11,Q2_M11,T1_M11,T2_M11,T3_M11,T4_M11,T5_M11,U1_M11,ZSPAN_M11,X0_M11,X2_M11,X1_M11
2021-09-10 21:00:00,,0828.0,4.99,0.00,28.7,26.8,00.0,37.7,30.5,11.3,0002.7,0023.77,0015.64,0014.34
2021-09-10 21:01:00,,0828.0,5.01,0.00,28.8,27.1,00.0,37.8,30.6,11.0,0001.3,0023.30,0015.60,0014.32
2021-09-10 21:02:00,,0828.0,5.01,0.00,28.9,27.5,00.0,37.8,30.8,10.9,0001.2,0023.47,0015.58,0014.29
2021-09-10 21:03:00,,0828.0,5.00,0.00,28.9,26.9,00.0,37.8,30.6,11.5,0001.2,0023.51,0015.55,0014.27
2021-09-10 21:04:00,,0828.0,5.00,0.00,28.8,25.6,00.0,37.8,30.2,11.5,0001.1,0023.49,0015.50,0014.24
2021-09-10 21:05:00,,0828.0,5.01,0.00,28.7,25.9,00.0,37.8,30.2,11.2,0000.7,0023.68,0015.48,0014.22
2021-09-10 21:06:00,,0828.0,5.00,0.00,28.7,26.4,00.0,37.7,30.4,11.1,0000.5,0024.06,0015.44,0014.19
2021-09-10 21:07:00,,0828.0,4.99,0.00,28.7,26.7,00.0,37.7,30.5,11.6,0000.3,0024.05,0015.41,0014.20
2021-09-10 21:08:00,,0828.0,5.00,0.00,28.8,27.1,00.0,37.8,30.6,12.1,-000.1,0023.93,0015.39,0014.22
2021-09-10 21:09:00,,0828.0,5.01,0.00,28.8,27.5,00.0,37.8,30.8,12.1,-000.1,0024.15,0015.47,0014.25
2021-09-10 21:10:00,,0828.0,5.00,0.00,28.9,26.8,00.0,37.8,30.5,11.6,-000.1,0024.50,0015.55,0014.29
2021-09-10 21:11:00,,0828.0,5.00,0.00,28.7,25.6,00.0,37.8,30.1,11.7,-000.3,0025.24,0015.55,0014.31
2021-09-10 21:12:00,,0828.0,5.00,0.00,28.7,25.9,00.0,37.8,30.2,12.0,0000.0,0025.38,0015.56,0014.33
2021-09-10 21:13:00,,0828.0,4.99,0.00,28.7,26.3,00.0,37.7,30.4,12.2,0000.2,0025.85,0015.64,0014.39
2021-09-10 21:14:00,,0828.0,5.00,0.00,28.7,26.7,00.0,37.7,30.5,12.6,-000.1,0026.88,0015.80,0014.46
2021-09-10 21:15:00,,0828.0,5.00,0.00,28.8,27.1,00.0,37.7,30.6,12.1,-000.3,0027.45,0015.84,0014.51
2021-09-10 21:16:00,,0828.0,4.99,0.00,28.8,27.5,00.0,37.8,30.7,11.8,-000.3,0028.10,0015.89,0014.55
2021-09-10 21:17:00,,0828.0,4.99,0.00,28.9,27.5,00.0,37.8,30.7,11.1,-000.6,0027.93,0015.95,0014.57
2021-09-10 21:18:00,,0828.0,5.01,0.00,28.8,26.1,00.0,37.8,30.3,11.7,-000.3,0028.13,0015.87,0014.55
2021-09-10 21:19:00,,0828.0,5.00,0.00,28.7,25.7,00.0,37.8,30.2,12.1,-000.4,0029.30,0015.91,0014.55
2021-09-10 21:20:00,,0828.0,4.99,0.00,28.7,26.2,00.0,37.8,30.3,12.2,-000.2,0029.21,0015.84,0014.54
2021-09-10 21:21:00,,0828.0,4.99,0.00,28.7,26.6,00.0,37.8,30.4,11.8,0000.1,0028.66,0015.79,0014.51
2021-09-10 21:22:00,,0828.0,5.01,0.00,28.8,27.0,00.0,37.8,30.6,11.4,0000.6,0028.38,0015.81,0014.49
2021-09-10 21:23:00,,0828.0,5.01,0.00,28.8,27.3,00.0,37.8,30.7,11.5,0000.7,0028.88,0015.85,0014.49
2021-09-10 21:24:00,,0827.9,4.99,0.00,28.9,27.3,00.0,37.8,30.7,11.2,0000.6,0029.66,0015.87,0014.48
2021-09-10 21:25:00,,0827.9,5.00,0.00,28.8,25.9,00.0,37.8,30.3,11.1,0001.0,0028.80,0015.80,0014.46
2021-09-10 21:26:00,,0827.9,5.00,0.00,28.7,25.7,00.0,37.8,30.2,10.9,0001.2,0028.81,0015.83,0014.45
2021-09-10 21:27:00,,0828.0,5.00,0.00,28.7,26.2,00.0,37.8,30.3,11.0,0001.1,0028.17,0015.82,0014.46
2021-09-10 21:28:00,,0827.9,5.00,0.00,28.7,26.6,00.0,37.7,30.4,10.9,0001.2,0028.02,0015.78,0014.45
2021-09-10 21:29:00,,0827.9,5.00,0.00,28.8,27.0,00.0,37.7,30.6,11.1,0001.0,0028.71,0015.81,0014.45
2021-09-10 21:30:00,,0827.9,5.00,0.00,28.8,27.3,00.0,37.8,30.7,11.2,0001.0,0028.39,0015.80,0014.42
2021-09-10 21:31:00,,0827.9,4.99,0.00,28.9,27.1,00.0,37.8,30.7,11.1,0000.4,0028.87,0015.79,0014.40
2021-09-10 21:32:00,,0827.9,5.00,0.00,28.8,25.8,00.0,37.8,30.2,11.2,-000.3,0029.51,0015.81,0014.41
2021-09-10 21:33:00,,0827.8,5.00,0.00,28.7,25.6,00.0,37.7,30.1,11.4,0000.1,0028.87,0015.82,0014.41
2021-09-10 21:34:00,,0827.8,4.99,0.00,28.7,26.2,00.0,37.7,30.3,11.5,0000.1,0028.55,0015.83,0014.39
2021-09-10 21:35:00,,0827.8,5.01,0.00,28.7,26.6,00.0,37.7,30.4,11.8,-000.0,0027.85,0015.79,0014.37
2021-09-10 21:36:00,,0827.8,5.00,0.00,28.7,27.0,00.0,37.7,30.6,11.2,-000.1,0028.01,0015.78,0014.35
2021-09-10 21:37:00,,0827.7,4.99,0.00,28.8,27.4,00.0,37.8,30.7,11.1,-000.2,0027.40,0015.77,0014.34
2021-09-10 21:38:00,,0827.7,5.01,0.00,28.9,27.1,00.0,37.8,30.6,11.3,-000.1,0028.32,0015.85,0014.33
2021-09-10 21:39:00,,0827.7,4.99,0.00,28.8,25.8,00.0,37.7,30.3,11.6,-000.1,0029.82,0015.90,0014.34
2021-09-10 21:40:00,,0827.7,4.98,0.00,28.7,25.8,00.0,37.7,30.2,11.4,-000.2,0030.24,0015.95,0014.36
2021-09-10 21:41:00,,0827.7,5.00,0.00,28.7,26.3,00.0,37.7,30.3,11.2,-000.4,0029.82,0015.92,0014.34
2021-09-10 21:42:00,,0827.7,5.00,0.00,28.7,26.6,00.0,37.7,30.4,11.6,-000.3,0029.27,0015.91,0014.34
2021-09-10 21:43:00,,0827.7,4.99,0.00,28.7,27.0,00.0,37.7,30.6,11.4,-000.3,0029.14,0015.91,0014.33
2021-09-10 21:44:00,,0827.7,5.00,0.00,28.8,27.4,00.0,37.7,30.7,11.4,-000.6,0029.87,0015.88,0014.33
2021-09-10 21:45:00,,0827.7,5.01,0.00,28.8,27.0,00.0,37.8,30.6,11.6,-000.5,0030.66,0015.84,0014.33
2021-09-10 21:46:00,,0827.7,5.00,0.00,28.7,25.7,00.0,37.7,30.2,11.6,-000.3,0031.49,0015.92,0014.35
2021-09-10 21:47:00,,0827.8,5.00,0.00,28.7,25.7,00.0,37.7,30.2,11.5,-000.2,0032.38,0015.88,0014.34
2021-09-10 21:48:00,,0827.7,5.00,0.00,28.7,26.2,00.0,37.7,30.3,11.4,-000.2,0032.58,0015.88,0014.33
2021-09-10 21:49:00,,0827.7,4.99,0.00,28.7,26.6,00.0,37.7,30.4,11.0,-000.6,0031.58,0015.79,0014.28
2021-09-10 21:50:00,,0827.8,5.01,0.00,28.7,27.0,00.0,37.7,30.6,11.0,-000.5,0029.44,0015.71,0014.24
2021-09-10 21:51:00,,0827.7,4.99,0.00,28.8,27.3,00.0,37.7,30.7,11.1,-000.7,0028.55,0015.65,0014.22
2021-09-10 21:52:00,,0827.7,4.99,0.00,28.8,26.9,00.0,37.7,30.6,11.6,-000.3,0029.15,0015.70,0014.24
2021-09-10 21:53:00,,0827.7,5.00,0.00,28.7,25.6,00.0,37.7,30.1,11.8,0000.0,0030.57,0015.75,0014.25
2021-09-10 21:54:00,,0827.7,5.00,0.00,28.6,25.8,00.0,37.7,30.2,11.8,0000.8,0032.13,0015.75,0014.25
2021-09-10 21:55:00,,0827.7,5.01,0.00,28.6,26.3,00.0,37.7,30.3,11.5,0000.9,0032.01,0015.74,0014.24
2021-09-10 21:56:00,,0827.6,5.00,0.00,28.7,26.7,00.0,37.7,30.4,11.3,0000.6,0031.38,0015.76,0014.23
2021-09-10 21:57:00,,0827.6,5.01,0.00,28.7,27.1,00.0,37.7,30.6,11.5,0000.3,0032.02,0015.71,0014.22
2021-09-10 21:58:00,,0827.6,5.00,0.00,28.8,27.4,00.0,37.7,30.7,11.6,0000.2,0031.29,0015.72,0014.22
2021-09-10 21:59:00,,0827.5,5.00,0.00,28.9,27.5,00.0,37.7,30.7,11.7,0000.2,0032.95,0015.74,0014.21
